Showing default

KUIPER-00119, 65155

Orbit data source: Space-Track

KUIPER-00119, 65155 is a payload satellite owned by Kuiper Systems (US) in LEO that was launched on Mon, 11 Aug 2025 UTC via an FALCON 9 launch vehicle from the Air Force Eastern Test Range (AFETR). Payload-class satellites include a variety of spacecraft equipped with specific instruments for various scientific and technological missions. These include communications satellites like Starlink; space stations such as the ISS; scientific satellites like the Hubble; Earth observation satellites from companies like Planet Labs, Umbra, and HawkEye 360; GPS; miniature CubeSats for education and research; and military/defense satellites.

Loading next visibility...
Identifier
65155, 2025-171Z
Orbit
LEO
Country
Flag of USUS
Related business
Manufacturer
Kuiper Systems
Mission
Operational Commercial Communications
Bus & Motor
KUIPER, Unknown motor
Mass
~490 kg wet, ~490 kg dry
Launch date (UTC)
2025-08-11 (10 months ago)
Launch vehicle
FALCON 9
Launch site
Air Force Eastern Test Range (AFETR)
Object type
Payload
Rocket body
Debris
Shape & HBR
Box + 2 Pan, 3.4 m
Radar Cross Section
2.326 m², Large (>1 m²)

Expand to show TLE details & history
Last TLE update: 12 hours ago

TLE from 12 hours ago
0 KUIPER-00119
1 65155U 25171Z   26171.41852013  .00003168  00000-0  44377-3 0  9995
2 65155  51.9013  68.9057 0000863 113.0130 247.0924 14.79987514 48021
Epoch: 2026-06-20T10:02Z
TLE epoch observation values (Epoch: 2026-06-20T10:02:40.139Z)
Latitude
0.00003°
Longitude
9.60506°
Altitude
630.346 km
Speed
7.544 km/s
True Right ascension
04h 35m 37s
True Declination
0° 00' 00"
Sunlit
Object was in daylight at epoch
Visualization orbit readout
Latitude
Unknown
Longitude
Unknown
Altitude
Unknown
Speed
Unknown
Apparent Right ascension
Unknown
Apparent Declination
Unknown
Sunlit
N/A
Visualization observer readout
Local Sidereal Time
08:32:32
Azimuth
Unknown
Elevation
Unknown
Doppler factor
Unknown
Orbital elements
Apogee altitude
630.419 km
Perigee altitude
629.21 km
Semi-major axis
7,007.952 km
Eccentricity
0.00009
Inclination
51.9013°
RAAN
68.9057°
Arg. of periapsis
113.013°
True anomaly
247.08329°
Mean anomaly
247.0924°
Eccentric anomaly
247.08785°
Mean motion
3.69962 °/min
Orbital period
97.31 mins
BSTAR
0.00044377
Loading maneuver chart data...
Computing Atmospheric mass density...
Loading historical data...
Loading historical data...
Loading historical data...
Loading historical data...
Loading historical data...
Loading historical data...
Loading historical data...

Documentation

Showing up to 5 results
|